This demonstration page uses our WeatherBlox Daily Observations layout. Learn more.

Left ArrowRight Arrow

Hourly Observations for August 31, 2022

Temp ( °F °C ) Dew Point ( °F °C ) Humidity (%) Winds ( mph kmh ) Pressure ( in mb ) Visibility ( mi km ) Precip ( " mm )
12:52 am 00:52 Clear 67 19.4 60 15.6 79 79 NE 5 7 30.09 1019 10 16 0.00 0.00
1:52 am 01:52 Clear 66 18.9 58 14.4 75 75 Calm 30.08 1019 10 16 0.00 0.00
2:52 am 02:52 Clear 63 17.2 58 14.4 84 84 Calm 30.08 1019 10 16 0.00 0.00
3:52 am 03:52 Clear 61 16.1 58 14.4 90 90 Calm 30.08 1019 10 16 0.00 0.00
4:52 am 04:52 Clear 60 15.6 57 13.9 90 90 Calm 30.08 1019 10 16 0.00 0.00
5:52 am 05:52 Clear 60 15.6 57 13.9 90 90 Calm 30.08 1019 10 16 0.00 0.00
6:52 am 06:52 Sunny 59 15 56 13.3 90 90 Calm 30.09 1019 10 16 0.00 0.00
7:52 am 07:52 Sunny 64 17.8 61 16.1 90 90 Calm 30.11 1020 10 16 0.00 0.00
8:52 am 08:52 Sunny 72 22.2 61 16.1 68 68 Calm 30.12 1020 10 16 0.00 0.00
9:52 am 09:52 Sunny 77 25 60 15.6 56 56 Calm 30.12 1020 10 16 0.00 0.00
10:52 am 10:52 Sunny 81 27.2 58 14.4 45 45 N 3 6 30.12 1020 10 16 0.00 0.00
11:52 am 11:52 Sunny 82 27.8 55 12.8 40 40 Calm 30.11 1020 10 16 0.00 0.00
12:52 pm 12:52 Sunny 83 28.3 56 13.3 40 40 VRB 3 6 30.09 1019 10 16 0.00 0.00
1:52 pm 13:52 Sunny 84 28.9 56 13.3 38 38 VRB 3 6 30.08 1019 10 16 0.00 0.00
2:52 pm 14:52 Sunny 85 29.4 57 13.9 39 39 VRB 3 6 30.06 1018 10 16 0.00 0.00
3:52 pm 15:52 Sunny 85 29.4 57 13.9 39 39 VRB 3 6 30.04 1017 10 16 0.00 0.00
4:52 pm 16:52 Sunny 87 30.6 54 12.2 32 32 Calm 30.02 1017 10 16 0.00 0.00
5:52 pm 17:52 Sunny 87 30.6 55 12.8 34 34 Calm 30.01 1016 10 16 0.00 0.00
6:52 pm 18:52 Sunny 82 27.8 60 15.6 47 47 SSW 5 7 30.01 1016 10 16 0.00 0.00
7:52 pm 19:52 Clear 76 24.4 62 16.7 62 62 SW 3 6 30.01 1016 10 16 0.00 0.00
8:52 pm 20:52 Clear 71 21.7 62 16.7 73 73 Calm 30.02 1017 10 16 0.00 0.00
9:52 pm 21:52 Clear 70 21.1 61 16.1 73 73 Calm 30.04 1017 10 16 0.00 0.00
10:52 pm 22:52 Clear 70 21.1 59 15 68 68 Calm 30.04 1017 10 16 0.00 0.00
11:52 pm 23:52 Clear 67 19.4 59 15 76 76 E 6 9 30.04 1017 10 16 0.00 0.00

Powered by AerisWeather